Wind_Speed
98 99 99 99 99 100 102 103 105 105 106 106 107 107 108 108 107 106 106 106 106 106 107 107 108 109 109 109 109 110 110 111 112 112 113 112 113 113 113 113 113 113 113 113 113 114 114 114 115 116 117 117 118 118 119 120 121 122 122 123 123 124 125 125 124 123 123 123 125 127 128 129 129 130 131 132 133 134 136 137 138 138 138 138 138
99 101 102 103 103 104 105 106 107 108 109 110 111 112 112 112 112 111 111 111 111 111 111 112 112 112 113 113 113 114 114 114 115 115 115 115 116 116 116 116 116 115 116 116 116 117 117 118 118 119 121 121 121 122 123 124 125 125 126 127 127 128 129 129 129 128 127 127 129 130 131 132 133 134 135 136 137 137 138 139 139 139 139 138 138
99 100 102 103 105 106 107 108 109 110 112 113 114 116 116 116 116 116 116 117 117 117 117 117 117 117 117 117 117 117 117 118 118 118 118 118 118 119 119 119 119 119 119 119 120 121 121 121 122 123 124 125 125 126 127 128 129 129 130 131 132 132 133 134 134 133 132 133 133 134 135 136 136 137 137 138 138 138 138 138 137 137 136 136 135
98 99 100 102 103 105 107 109 111 112 114 116 117 119 120 120 120 120 121 121 122 123 123 123 122 122 122 121 121 121 121 121 120 120 120 120 120 121 121 121 122 122 122 122 123 124 124 125 125 127 128 129 129 130 131 132 133 134 134 135 136 137 138 138 138 138 137 137 137 137 138 138 137 138 138 137 137 136 136 135 134 133 132 131 131
98 98 99 101 102 103 105 107 110 112 114 117 119 122 123 124 124 125 125 126 126 127 127 128 128 127 127 127 126 125 125 124 124 123 123 123 123 123 123 124 124 125 125 126 127 127 128 128 129 130 131 132 133 134 135 136 137 138 138 139 140 141 142 142 142 142 141 140 139 139 139 139 139 138 137 136 135 133 132 131 130 130 129 128 127
98 98 99 100 101 102 103 105 107 110 112 115 118 121 123 125 126 128 129 130 130 131 132 132 132 132 131 131 130 129 129 128 128 127 127 126 126 126 126 127 128 128 129 129 130 131 131 132 132 133 134 135 136 137 138 139 140 141 142 143 144 145 145 145 146 145 144 143 141 140 140 139 138 137 135 134 132 130 129 129 129 129 128 126 125
98 99 99 99 100 100 101 103 104 106 108 111 113 116 119 122 124 126 128 129 131 132 132 133 133 133 133 133 133 132 132 132 131 131 130 130 130 130 131 131 132 132 133 133 134 134 135 135 136 137 138 139 140 141 142 143 144 145 146 147 148 148 148 149 148 147 146 144 141 139 138 136 135 135 133 132 130 128 128 129 128 127 126 126 125
97 98 99 99 99 99 100 101 101 103 104 106 108 111 113 116 118 121 123 124 126 128 129 130 131 131 132 132 133 133 133 133 133 134 134 134 134 135 135 136 136 137 137 138 138 139 139 139 140 141 142 143 144 145 146 147 148 148 149 150 150 150 150 149 148 146 144 141 139 137 135 134 134 133 132 131 130 129 129 128 127 127 127 126 124
95 96 97 98 98 99 100 100 101 102 103 105 107 109 111 113 115 117 119 121 123 125 126 128 128 129 130 130 130 131 131 132 132 133 134 135 136 137 138 139 140 140 141 141 142 142 143 143 144 144 145 146 147 148 149 149 149 150 150 149 149 148 147 146 144 142 141 139 137 136 135 134 133 133 132 131 130 130 129 127 126 126 126 125 123
94 94 95 96 97 98 99 100 101 103 104 106 108 109 111 113 115 118 120 122 124 125 127 128 128 129 129 129 129 129 129 130 130 131 132 133 134 135 136 137 138 139 140 141 142 142 143 143 144 144 145 145 146 146 147 147 147 146 146 145 144 143 142 142 141 140 139 139 138 136 135 133 132 132 132 131 130 129 128 126 125 124 123 122 120
95 94 94 95 96 97 99 100 101 103 105 107 108 110 112 114 116 118 120 122 123 125 127 128 129 129 130 130 130 130 130 130 130 130 131 131 131 132 133 134 134 135 136 137 137 138 139 139 140 140 141 141 142 142 142 142 142 142 142 141 141 141 141 141 141 140 140 139 138 136 134 133 132 132 131 130 129 128 126 124 122 121 119 117 116
97 97 97 97 98 99 100 101 103 104 106 107 109 110 111 113 115 116 118 119 121 123 124 125 127 128 129 129 130 130 131 131 131 131 131 131 132 132 133 133 133 134 134 135 135 136 137 137 138 138 138 139 140 140 140 140 140 140 141 141 141 141 141 141 141 140 139 138 137 135 134 132 131 130 129 127 126 124 122 120 118 116 114 113 112
98 99 99 99 100 101 102 103 104 105 106 107 108 110 111 112 113 114 115 116 117 118 119 121 122 124 125 126 127 128 129 129 129 130 130 131 131 131 132 132 133 133 134 134 135 136 136 137 137 138 138 139 139 140 140 140 140 141 141 141 141 141 141 141 140 139 138 136 134 132 130 129 127 126 124 123 121 119 117 116 114 112 110 108 108
97 98 99 100 101 102 103 104 104 105 106 107 107 108 109 110 110 111 112 112 113 114 115 116 117 118 119 121 122 123 124 125 125 126 127 128 128 128 128 129 130 131 132 132 133 134 135 135 136 137 137 138 138 139 139 139 140 139 139 139 138 138 138 137 136 135 133 131 128 126 125 124 122 121 119 118 116 114 113 111 109 108 106 105 104
95 96 97 98 99 100 101 102 102 103 104 104 104 105 106 106 107 108 108 109 109 110 110 111 112 112 113 114 115 116 117 119 120 121 122 122 123 123 124 125 126 127 128 129 130 131 132 133 134 134 134 135 135 135 135 135 135 135 134 133 132 132 131 130 129 127 125 123 121 120 119 118 117 115 114 112 111 109 109 107 105 104 103 102 101
94 95 95 96 96 97 97 98 98 99 99 100 100 101 102 103 103 104 104 104 105 105 105 106 106 107 108 108 109 110 111 112 113 114 115 116 116 117 118 119 120 122 123 124 125 126 126 127 127 127 128 128 128 128 128 128 127 126 126 125 124 123 122 121 121 119 118 116 115 114 114 112 111 110 109 108 107 106 105 103 102 102 101 99 98
92 93 93 93 94 94 94 94 94 95 95 95 96 97 98 98 99 99 99 99 99 100 100 101 101 102 103 103 104 105 105 106 107 108 109 109 109 110 111 112 113 114 115 115 116 117 117 117 118 118 119 119 120 120 119 119 118 117 117 116 115 115 114 114 114 113 111 110 109 108 108 108 107 106 105 105 104 103 103 100 99 100 99 96 96
88 89 90 90 90 91 91 91 91 91 91 92 92 92 93 93 93 94 94 94 94 94 95 96 96 97 98 99 99 100 101 101 102 103 103 104 104 105 105 106 106 107 107 107 108 109 109 109 110 110 111 111 112 112 111 111 110 110 110 109 109 108 108 109 108 107 107 106 105 104 103 103 103 102 102 102 101 101 100 98 97 98 96 94 95
84 84 85 86 86 86 86 87 87 88 88 88 89 89 89 89 88 88 88 89 89 90 91 91 92 93 94 94 95 96 97 97 98 99 99 100 100 100 101 102 102 102 102 102 103 103 103 104 105 105 106 106 106 106 106 106 105 105 105 105 104 104 105 105 104 104 103 102 101 100 99 99 99 99 98 99 99 98 97 96 96 96 95 94 94
80 80 81 81 82 82 83 83 84 84 85 85 85 84 84 84 84 84 84 85 85 86 87 88 88 89 90 91 92 92 93 93 94 95 96 96 96 97 97 98 98 98 99 99 99 99 100 100 101 101 102 102 103 103 103 103 102 102 101 101 101 101 101 101 100 100 99 98 97 97 96 96 97 96 96 96 96 97 97 96 95 95 95 94 94
75 76 76 77 78 79 80 80 81 81 81 81 80 80 80 80 80 80 81 81 82 83 84 84 85 86 87 87 88 89 90 91 91 92 93 93 94 94 94 95 95 95 95 96 96 97 97 98 98 99 99 99 99 99 100 100 99 99 98 97 97 97 97 96 96 96 96 95 95 95 94 95 95 95 95 95 96 96 97 96 95 95 94 94 94
72 72 73 74 76 77 77 78 78 78 78 77 76 76 76 76 77 77 78 78 79 80 81 81 82 83 84 85 86 86 87 89 89 90 91 91 91 92 92 92 93 93 93 93 93 94 94 95 95 95 95 95 95 95 95 95 96 95 95 94 94 93 93 93 94 94 94 94 94 94 94 94 94 94 95 95 96 96 96 96 95 94 93 93 93
70 71 72 73 74 75 76 76 76 75 74 74 73 73 73 73 74 75 75 76 76 77 78 79 79 80 81 82 83 84 85 86 87 88 88 88 89 89 89 89 89 89 90 90 90 91 91 91 91 91 91 91 91 91 91 92 92 92 92 92 92 91 91 92 92 93 93 94 94 94 94 94 94 95 95 96 96 96 95 95 94 94 92 91 91
68 69 70 71 72 73 73 73 73 73 72 71 71 70 70 70 71 72 72 73 74 74 75 76 77 77 78 79 80 81 82 83 84 85 85 85 85 85 85 85 85 85 86 86 86 87 87 87 87 87 87 88 88 89 90 91 91 90 91 91 91 91 91 92 92 92 93 93 93 93 93 94 94 95 95 96 96 96 95 94 94 93 92 90 90
65 66 68 69 70 71 71 70 70 70 70 69 69 69 69 69 69 69 70 71 71 72 72 73 74 75 76 76 77 78 79 80 81 81 82 82 82 81 81 81 81 81 82 82 83 83 83 83 84 85 86 87 88 88 89 90 90 90 90 91 91 92 92 92 92 92 92 92 92 92 92 93 93 93 94 94 95 95 96 95 94 93 92 91 89
62 63 65 66 67 68 68 67 67 67 67 67 67 67 67 68 68 68 69 69 69 70 70 71 72 73 74 74 75 75 76 77 77 78 78 78 78 78 78 78 78 79 79 80 80 81 81 82 83 85 86 86 87 88 88 90 90 90 90 90 91 91 91 91 91 91 91 91 91 91 91 91 91 91 91 91 92 93 94 95 95 95 95 93 91
61 62 63 64 65 65 65 65 64 64 64 64 64 65 65 66 66 67 67 68 68 68 69 69 70 71 72 72 73 74 74 74 74 74 74 75 75 76 76 76 77 77 78 79 79 80 81 82 83 84 85 85 86 87 88 89 90 90 90 90 90 90 90 90 90 89 89 89 89 89 88 89 89 89 89 89 89 91 92 93 93 94 95 94 93
60 61 61 62 63 63 63 63 62 62 62 62 62 63 63 64 64 64 65 66 66 66 67 67 68 69 70 70 71 72 73 73 72 72 72 73 73 74 75 76 76 77 77 78 79 80 81 81 82 82 83 84 85 86 87 88 89 89 90 89 89 88 88 88 88 88 88 87 87 87 87 87 87 88 88 88 88 89 89 90 90 90 91 92 91
58 59 60 61 61 61 61 61 61 60 60 60 61 61 61 62 62 63 63 64 64 64 65 65 66 67 68 68 69 70 71 71 71 71 71 71 72 72 73 74 75 76 77 78 79 79 79 79 80 81 81 82 83 84 85 85 86 87 87 87 87 87 86 86 86 86 86 86 86 86 86 86 86 86 86 86 86 87 87 87 87 87 88 88 88
56 57 58 58 58 58 58 58 58 58 58 58 59 59 60 60 61 61 62 62 63 63 63 64 64 65 66 67 68 69 69 70 71 70 70 70 70 70 70 71 73 74 76 77 76 76 76 77 78 79 79 80 80 81 82 82 83 84 85 85 86 86 86 85 85 85 85 85 85 85 85 85 85 85 84 84 84 84 85 85 85 85 85 85 85
55 56 56 56 56 56 56 56 56 56 56 57 57 57 58 58 59 60 60 61 61 62 63 63 63 64 64 65 66 67 68 68 69 69 68 68 67 67 67 69 70 72 73 74 74 74 75 75 76 76 76 77 77 78 79 80 81 82 83 83 84 84 84 84 84 84 83 83 82 82 82 83 83 83 83 82 82 82 83 83 83 83 83 83 83
54 54 54 54 54 54 54 54 54 54 54 55 55 55 55 56 57 58 59 60 60 60 61 61 62 63 63 63 64 64 65 66 66 67 67 66 65 65 66 67 67 68 69 70 71 72 73 73 74 74 75 76 76 77 78 79 79 80 81 81 82 82 82 82 82 82 82 82 81 81 80 80 80 80 80 80 81 81 81 81 81 81 81 80 81
53 53 53 53 53 53 53 53 53 52 53 53 54 54 54 55 55 56 57 58 58 58 58 59 59 60 60 60 61 61 62 63 64 64 64 64 63 64 65 65 66 66 67 67 68 69 70 71 72 73 74 75 76 76 77 78 78 78 79 79 79 80 80 80 80 80 80 80 80 80 79 79 79 79 79 79 79 79 80 80 80 80 79 79 79
52 51 51 51 51 51 52 52 52 52 52 52 52 53 54 54 54 54 54 55 55 56 56 57 57 58 58 58 58 59 60 61 61 62 62 62 62 64 65 65 65 66 66 67 67 68 68 70 70 71 72 73 74 75 75 76 77 77 77 77 77 77 77 77 77 77 77 77 77 78 78 78 78 78 78 78 78 79 79 79 79 78 78 77 77
51 51 50 50 50 50 50 50 51 51 51 51 52 52 53 53 53 54 54 53 53 53 53 53 55 56 57 57 58 58 59 59 60 60 60 61 62 63 64 64 64 65 66 67 68 68 69 69 69 70 70 71 71 72 73 73 74 75 75 75 76 75 75 75 75 75 75 75 75 75 75 75 75 76 76 76 76 77 77 77 77 77 77 76 75
50 50 49 49 48 48 48 49 49 50 50 50 51 51 51 52 52 52 53 52 52 52 51 51 51 53 54 56 57 58 58 58 58 58 59 60 61 62 63 64 65 65 66 67 68 69 69 69 69 69 69 69 69 70 70 71 71 72 73 73 74 74 74 74 74 74 74 74 73 73 73 73 73 73 73 73 74 74 74 75 75 75 75 75 75
49 48 48 48 47 47 47 47 48 48 48 49 49 49 50 51 51 51 51 52 52 52 52 51 51 51 52 53 55 56 57 57 57 57 57 59 60 61 62 63 64 64 65 65 66 67 67 68 68 68 68 68 68 68 68 69 69 70 71 71 72 72 73 72 73 73 73 72 72 72 72 72 71 71 71 71 71 71 71 72 72 72 73 73 73
47 47 47 46 46 46 46 46 46 46 46 47 47 48 49 49 50 50 50 51 51 51 52 52 51 51 51 51 52 54 55 56 56 56 57 57 59 60 61 61 62 62 62 63 63 64 64 65 65 66 66 67 67 67 67 67 68 68 69 69 70 70 70 71 71 71 70 71 70 70 70 70 69 69 70 70 70 70 70 70 70 70 70 70 70
46 46 45 45 45 45 45 45 45 45 45 46 46 47 48 48 49 49 49 50 50 51 51 51 51 51 51 51 51 52 53 54 55 56 56 57 57 58 59 59 59 59 60 60 60 61 62 63 64 64 65 65 65 65 65 65 66 66 66 66 67 67 67 68 68 68 68 68 67 67 67 67 66 67 67 67 68 68 68 68 68 68 68 69 69
44 44 44 43 43 43 44 44 44 44 45 45 46 47 47 47 48 48 48 49 49 50 50 51 51 51 52 52 52 52 52 53 53 54 55 55 56 56 56 57 57 57 58 58 59 59 60 60 61 62 62 63 63 63 63 63 63 63 63 63 63 64 64 64 65 65 65 65 65 65 64 64 64 64 64 64 64 65 65 65 66 66 66 66 67
43 42 42 42 42 43 43 43 43 43 44 45 45 46 46 47 47 47 47 48 49 49 50 50 51 51 51 51 52 52 52 52 52 52 53 53 53 54 54 55 55 56 56 57 57 58 58 58 59 59 60 60 61 61 61 61 61 61 61 61 61 61 61 62 62 63 63 63 62 62 62 62 62 62 62 62 62 62 62 62 62 62 62 62 62
41 41 41 42 42 42 42 42 42 43 44 44 45 45 45 46 46 46 47 48 48 49 49 49 49 50 50 51 51 51 51 51 50 50 51 51 51 52 52 53 54 54 54 55 55 55 56 56 57 57 57 58 59 59 59 60 60 60 60 60 60 60 60 60 60 60 61 61 60 60 60 60 60 60 60 60 59 59 59 59 59 59 59 58 58
40 40 41 41 41 41 42 42 42 43 43 44 44 45 45 45 45 46 47 48 48 48 48 48 48 49 49 50 50 50 49 49 49 49 49 49 50 50 51 51 52 52 52 53 53 53 54 54 55 55 55 56 56 57 57 58 58 58 59 59 59 59 59 59 58 58 58 58 58 58 58 58 58 58 58 58 58 57 57 57 57 57 57 57 57
39 39 40 40 40 41 41 41 42 42 43 43 44 44 44 45 45 45 46 47 46 46 47 47 47 47 48 48 48 48 48 48 48 48 48 48 49 49 50 50 50 51 51 51 52 52 53 53 53 53 53 54 54 55 55 56 56 56 57 57 57 57 57 56 56 56 56 56 55 56 56 56 56 56 56 56 56 56 55 55 55 55 55 55 55
39 39 39 39 39 40 40 41 41 42 42 43 43 43 43 44 44 45 46 46 45 45 46 46 46 46 47 47 47 47 47 47 47 47 47 47 48 48 48 49 49 49 50 50 51 52 52 52 52 52 52 53 53 53 54 54 54 54 54 54 54 54 54 53 53 53 53 53 52 52 52 53 53 53 53 53 53 53 53 53 53 53 53 53 53
38 38 38 38 39 39 40 40 41 41 42 42 42 42 42 43 44 44 45 44 44 44 45 45 45 45 45 45 45 45 45 45 46 46 46 46 47 47 47 47 48 48 49 49 50 51 51 51 51 51 52 52 52 52 52 52 52 52 52 51 51 51 51 50 50 50 50 50 50 50 50 50 50 50 50 50 50 51 51 51 51 51 51 51 51
37 37 38 38 38 39 39 40 40 41 41 41 41 41 41 42 43 43 44 43 43 43 44 44 44 44 44 44 44 44 44 45 45 45 45 45 46 46 46 46 47 47 48 48 49 50 50 50 50 50 50 50 50 50 50 50 50 49 49 49 49 48 48 48 48 48 48 48 48 47 47 47 47 47 47 48 48 49 49 49 49 49 49 49 49
37 37 37 38 38 38 39 39 40 40 40 40 40 40 40 41 42 42 43 42 42 43 43 43 43 43 43 43 43 43 44 44 44 44 44 44 45 45 45 45 46 46 47 48 48 49 49 49 49 49 48 49 49 48 48 48 48 47 47 47 47 47 47 47 47 46 46 46 46 45 45 45 45 45 45 45 46 46 47 47 47 47 48 48 47
36 36 36 37 37 38 38 38 38 39 39 39 39 39 39 40 41 42 42 41 42 42 42 42 42 42 42 42 42 42 43 43 43 43 43 43 43 44 44 44 45 46 46 47 47 48 48 48 47 47 47 47 47 47 46 46 46 46 46 46 46 46 45 45 46 45 45 44 44 44 44 44 44 43 43 43 43 43 44 45 45 45 45 45 45
35 36 36 36 37 37 37 38 38 38 38 38 38 38 39 39 40 41 41 41 41 41 41 41 41 42 42 42 42 42 41 41 41 42 42 42 42 43 43 44 44 45 46 46 46 46 46 46 46 46 46 47 46 46 45 45 45 45 45 45 45 45 45 44 44 44 44 43 43 43 42 42 42 41 41 41 41 41 41 41 42 42 42 42 42
35 35 36 36 36 37 37 37 37 37 38 38 38 38 38 38 39 40 40 40 40 40 41 41 41 41 41 41 40 40 40 40 41 41 41 41 42 42 42 43 44 44 45 45 45 45 46 46 46 46 46 46 46 45 45 45 45 45 45 44 44 44 44 43 43 43 43 43 42 41 40 40 40 39 39 39 38 38 38 38 38 38 39 39 39
Wind_Direction
264 262 261 260 260 260 260 261 262 263 264 265 265 265 264 263 263 262 262 263 263 264 264 264 264 264 264 264 264 264 264 264 264 265 265 266 266 266 267 267 267 267 267 267 268 268 268 268 268 268 268 268 268 268 268 269 269 269 269 269 270 270 270 270 270 270 269 270 270 270 271 271 272 272 272 272 271 271 271 271 271 271 270 270 270
264 263 262 261 260 259 259 259 259 260 261 262 263 264 265 265 265 265 265 265 265 264 264 264 264 263 263 263 263 263 263 263 264 264 265 265 266 266 267 267 267 267 268 268 268 268 268 268 268 268 269 269 269 269 269 269 270 270 270 270 270 271 271 271 271 271 271 271 271 271 271 272 272 272 272 272 272 271 271 271 271 271 270 270 270
265 264 263 262 261 260 259 259 258 259 259 260 261 262 263 264 265 265 266 266 266 266 266 266 265 265 264 264 264 263 263 264 264 264 265 265 266 266 267 267 267 267 268 268 268 268 268 268 268 269 269 269 269 269 270 270 270 270 271 271 271 271 271 272 272 272 272 272 272 272 272 272 272 273 273 273 273 272 272 272 272 271 271 271 270
265 264 263 262 261 261 260 259 259 258 258 259 260 261 261 262 263 264 264 265 266 266 267 267 267 266 266 266 265 265 265 265 265 265 266 266 266 266 266 267 267 267 267 268 268 268 268 268 268 269 269 269 270 270 270 270 271 271 271 271 272 272 272 272 273 273 273 273 273 274 274 274 274 274 274 274 274 274 274 273 273 273 272 271 271
266 265 264 263 262 262 261 260 260 259 259 259 259 260 261 262 262 263 263 264 265 265 266 267 267 267 267 267 267 267 267 267 267 267 267 267 267 267 267 267 267 267 267 267 268 268 268 268 268 269 269 269 270 270 270 271 271 272 272 273 273 273 274 274 275 275 275 275 275 276 276 276 276 276 276 276 275 275 275 275 274 274 273 272 272
267 266 265 265 264 263 262 262 261 260 260 260 260 260 261 262 263 263 264 264 265 265 266 266 267 267 267 268 268 268 268 268 268 268 268 268 268 268 268 268 268 268 268 268 268 269 269 269 269 270 270 270 271 271 272 272 273 273 274 274 274 275 275 276 276 276 277 277 277 277 277 277 277 277 276 276 275 275 275 275 275 274 274 273 273
267 267 266 266 265 264 264 263 262 262 261 261 261 262 262 263 263 264 264 265 266 266 266 267 267 267 267 267 267 267 267 268 268 268 268 268 268 268 268 268 268 268 268 268 269 269 270 270 270 271 271 271 272 272 272 273 273 274 274 274 275 275 276 276 276 277 277 277 277 277 277 277 276 276 276 276 276 276 276 275 275 275 275 275 274
267 266 266 266 266 265 265 264 264 263 263 263 263 263 263 263 264 264 265 266 266 266 267 267 267 267 267 267 267 267 267 267 267 267 267 267 267 267 267 267 267 267 268 268 268 269 269 270 270 270 271 271 271 272 272 272 273 273 274 274 274 275 275 276 276 277 277 277 277 277 277 276 276 276 276 277 277 276 276 276 276 276 275 275 274
267 266 266 265 265 265 265 265 265 264 264 265 265 265 265 265 265 265 266 266 266 266 266 266 266 266 267 267 267 267 267 267 267 267 266 266 266 266 266 266 267 267 267 268 268 268 269 269 269 270 270 270 271 271 271 272 272 273 273 274 274 275 275 276 276 276 276 277 277 276 276 276 276 277 277 277 277 277 276 276 276 275 275 275 275
269 268 267 267 266 266 266 266 265 265 266 266 266 266 266 266 266 266 266 266 266 266 266 266 266 266 266 267 267 267 267 267 267 266 266 266 266 267 267 267 267 267 268 268 268 268 269 269 269 269 270 270 270 271 271 272 272 273 273 274 274 274 275 275 276 276 276 276 276 276 276 277 277 277 277 277 277 277 276 276 275 275 275 275 274
271 271 270 269 269 269 268 268 268 267 267 267 267 267 267 267 267 267 267 267 267 267 266 266 266 266 266 266 266 266 266 266 266 266 266 266 266 267 267 267 267 267 267 268 268 268 268 269 269 269 270 270 270 271 271 272 272 272 273 273 274 274 274 275 275 275 275 275 276 277 277 277 277 277 277 277 277 276 276 275 275 275 274 274 274
272 272 271 271 271 271 270 270 270 270 269 269 269 268 268 268 267 267 267 267 266 266 266 266 266 266 266 265 265 266 266 266 266 266 266 266 266 266 266 266 267 267 267 267 268 268 268 269 269 269 270 270 270 271 271 272 272 272 273 273 273 273 274 274 274 275 275 276 277 277 277 277 277 277 277 277 276 276 276 275 275 274 274 274 273
271 271 271 271 271 271 271 271 271 271 271 271 270 270 270 270 269 269 268 268 267 266 266 265 265 265 265 265 265 265 265 266 266 266 266 266 266 266 266 266 267 267 267 268 268 268 269 269 269 270 270 270 271 271 271 272 272 272 272 272 273 273 274 274 275 275 276 276 277 277 277 277 277 276 276 276 275 275 275 275 274 274 274 273 273
270 270 270 270 270 271 271 271 271 271 271 271 271 271 271 271 271 270 270 269 268 267 267 266 266 266 266 266 266 266 266 266 266 267 267 267 267 267 268 268 268 268 268 269 269 269 269 269 269 270 270 270 270 271 271 271 271 272 272 273 273 274 274 275 275 275 275 276 276 276 276 276 276 276 275 275 275 275 275 274 274 274 274 274 273
271 270 270 270 270 270 270 270 271 271 271 271 271 272 272 271 271 271 270 270 269 268 268 267 267 267 267 267 267 267 267 267 267 267 268 268 268 268 268 268 268 268 268 268 268 269 269 269 269 269 270 270 270 271 271 271 272 272 272 273 273 273 274 274 274 275 275 275 275 275 275 275 275 275 275 275 275 275 274 274 274 274 274 273 272
272 272 272 271 271 271 271 271 271 271 271 271 272 272 271 271 271 270 270 269 269 269 268 268 268 268 268 268 268 268 268 268 268 268 268 268 268 268 268 268 268 268 268 268 269 269 269 269 270 270 270 271 271 271 271 271 272 272 272 272 273 273 273 274 274 274 274 274 275 275 275 275 275 275 275 275 275 274 274 274 274 273 272 272 272
273 273 273 273 273 273 272 272 272 272 272 272 272 272 271 271 270 269 269 268 268 268 268 268 268 268 268 269 269 269 269 269 269 269 269 269 269 269 269 269 269 269 269 269 270 270 270 270 271 271 271 271 271 271 271 271 272 272 273 273 273 273 274 274 274 274 274 274 274 274 274 275 275 275 274 274 274 274 273 273 273 272 272 272 272
272 273 273 273 273 274 274 274 274 274 274 274 273 272 271 270 269 268 268 267 267 267 267 268 268 268 268 269 269 269 269 270 270 270 270 270 270 270 270 270 270 270 270 270 271 271 271 271 271 271 271 272 272 272 272 272 273 273 273 273 274 274 274 274 274 274 274 274 274 274 274 274 274 274 274 274 273 273 273 273 273 273 273 273 272
273 273 273 273 274 274 274 275 275 276 275 275 274 273 272 270 269 268 267 267 267 267 267 267 267 267 268 268 268 269 269 269 269 270 270 270 270 270 271 271 271 271 271 271 272 272 272 272 272 272 272 273 273 273 273 273 273 273 273 273 274 274 274 273 274 274 274 274 274 274 273 273 273 273 273 273 274 274 273 273 273 273 273 273 272
273 273 274 274 275 275 276 276 276 276 276 275 274 273 272 271 270 269 268 268 268 268 268 268 268 268 268 269 269 269 270 270 270 270 271 271 271 271 271 271 272 272 272 272 272 273 273 273 273 273 273 273 273 274 274 274 274 273 273 273 273 273 273 273 273 273 273 273 274 274 274 274 274 274 274 274 274 274 274 274 273 273 273 273 272
275 275 275 276 277 277 277 277 277 277 276 276 274 273 272 271 270 270 269 269 269 269 269 269 269 270 270 270 271 271 271 271 271 271 271 271 272 272 272 272 272 273 273 273 273 273 273 273 273 273 273 273 273 273 274 274 274 274 273 273 273 272 273 273 273 273 273 274 274 274 274 274 274 274 274 274 273 273 273 273 273 273 273 273 272
278 279 279 279 279 279 278 278 278 277 277 276 275 274 273 272 271 271 270 270 270 270 270 270 271 271 271 271 271 272 272 272 272 272 272 272 272 272 272 272 273 273 273 273 273 273 273 273 273 273 273 273 273 273 273 273 273 273 273 273 273 273 274 274 274 274 275 275 275 275 274 274 274 274 274 274 273 273 273 273 273 273 272 272 271
281 281 280 280 280 280 280 280 279 278 277 276 275 274 273 272 272 272 271 271 271 271 271 272 272 272 272 272 272 272 272 272 272 272 272 272 272 272 272 273 273 273 273 273 273 273 273 273 273 273 273 273 273 273 273 273 273 273 273 273 274 274 274 274 274 274 275 275 275 275 275 275 275 275 275 275 275 274 274 274 274 273 272 272 271
280 281 281 281 281 281 281 281 280 280 279 277 276 275 274 273 273 272 272 272 272 272 272 273 273 273 273 273 273 273 273 273 273 273 273 273 273 273 273 274 274 274 274 273 273 273 273 273 273 274 274 274 274 273 273 273 273 274 274 274 274 274 274 274 274 274 275 275 275 276 276 276 277 277 277 277 277 277 276 275 274 274 273 272 272
280 280 280 281 281 281 281 281 281 280 279 279 278 277 277 276 275 275 274 274 274 274 274 274 274 275 274 274 274 274 274 274 274 274 274 274 274 274 274 274 274 274 274 274 274 274 274 274 274 274 274 273 273 273 274 274 274 274 275 275 275 275 275 275 275 275 276 276 276 276 276 276 276 276 277 277 278 278 278 278 277 276 275 273 272
281 281 281 281 281 281 281 281 280 280 279 279 279 278 278 278 278 277 277 276 276 276 276 276 276 276 276 276 275 274 274 274 274 274 274 274 274 274 274 274 274 274 274 274 274 274 274 274 274 273 273 274 274 275 275 275 275 275 275 275 276 276 276 276 276 276 276 276 276 276 276 276 276 276 276 276 276 277 278 278 278 278 277 276 275
283 282 282 282 282 282 282 282 281 280 279 279 278 278 278 278 278 277 277 277 277 277 277 277 277 277 276 276 275 275 274 273 273 273 273 274 274 274 274 274 274 273 273 273 273 273 273 273 273 274 275 276 276 277 277 277 277 277 277 277 277 277 277 277 277 277 277 276 276 276 276 276 276 276 276 275 275 275 276 276 276 277 278 278 278
284 284 284 284 283 283 283 283 282 281 281 280 279 279 278 278 278 277 277 277 277 277 277 276 276 276 275 275 275 274 274 273 273 273 273 273 273 273 273 274 274 274 274 274 274 274 274 275 276 276 276 277 277 277 277 277 278 278 278 278 278 278 278 278 278 278 278 277 277 277 277 277 276 276 276 276 275 275 275 275 275 275 276 276 277
285 285 285 284 284 284 284 283 283 282 282 281 280 280 279 279 278 278 277 277 276 276 276 276 275 275 274 274 274 273 273 273 273 273 273 273 273 274 274 275 276 276 276 275 276 276 277 277 277 277 276 276 276 276 277 277 277 278 278 279 279 279 279 278 278 278 278 278 278 278 278 277 277 277 277 276 276 276 275 275 275 275 275 275 275
286 285 285 285 285 284 284 284 283 283 282 281 280 280 279 279 278 278 277 277 276 276 275 275 274 274 274 274 274 274 274 275 275 275 275 275 275 276 276 276 276 276 276 276 277 277 277 277 276 276 276 276 277 277 277 278 278 278 278 279 279 279 279 279 279 279 278 278 278 278 278 278 278 278 278 277 277 277 276 276 276 275 275 274 274
287 287 286 286 286 286 285 285 284 283 282 281 280 279 279 279 278 278 277 276 276 276 276 275 275 275 274 275 275 275 276 276 277 277 277 277 276 276 276 276 275 276 276 277 277 277 277 277 277 277 278 278 278 278 278 278 279 279 279 279 279 279 280 280 280 280 279 279 279 279 279 279 279 279 279 278 278 277 277 277 276 276 275 274 274
289 288 288 288 288 287 286 285 284 283 282 281 280 279 278 277 277 277 276 276 275 275 275 275 275 275 276 276 276 276 277 277 277 277 277 278 277 277 276 275 275 276 276 277 278 278 279 279 280 280 280 280 280 280 279 279 279 280 280 280 280 281 281 281 281 281 281 281 281 280 280 280 279 279 278 278 277 277 277 276 276 276 275 274 274
290 290 290 289 289 288 287 286 284 283 282 281 280 279 278 277 276 276 276 276 276 276 276 276 276 276 276 276 276 276 276 277 277 277 278 279 279 278 278 277 277 277 277 278 278 279 280 280 281 281 281 282 282 282 282 282 281 281 281 281 281 281 281 281 281 281 282 282 281 281 281 280 280 279 279 278 277 277 276 276 276 275 275 274 273
292 291 290 290 289 288 287 286 285 284 283 282 281 280 280 279 279 278 278 278 278 278 279 279 279 278 277 277 277 276 277 277 278 279 279 280 280 280 280 280 281 281 281 281 281 281 281 281 281 282 282 282 282 282 283 283 283 283 282 282 282 281 281 281 281 281 281 281 281 280 280 280 280 279 279 279 278 278 277 277 276 275 275 274 273
292 292 291 290 289 287 286 286 285 285 284 283 282 282 281 282 282 281 281 280 279 278 278 278 279 279 280 280 279 279 280 280 281 282 282 283 283 283 283 284 284 284 285 285 285 285 284 284 284 283 283 283 283 283 283 283 283 283 283 283 283 283 282 282 282 281 281 280 280 280 279 279 279 279 279 278 278 278 278 278 277 277 276 275 274
292 292 291 290 288 287 286 286 285 285 284 283 283 283 283 283 282 282 282 282 281 280 279 278 278 279 280 281 282 282 282 282 283 283 284 284 285 285 286 286 286 286 287 287 287 287 287 286 286 286 285 285 285 284 284 284 284 284 284 284 284 283 283 283 283 282 282 281 281 281 280 280 279 279 279 278 278 277 277 277 277 277 276 276 275
292 291 290 289 288 288 287 286 285 285 285 284 284 284 283 283 284 284 284 284 284 284 283 282 281 280 280 281 282 282 283 283 283 283 284 284 284 285 285 285 285 286 286 286 286 286 286 286 287 287 287 286 286 286 286 285 285 285 285 284 284 284 284 284 284 283 283 283 283 282 282 282 281 281 280 279 278 278 277 276 276 276 275 275 275
292 291 290 290 289 289 288 287 287 286 285 284 284 284 284 284 285 285 285 286 286 285 285 285 284 284 283 283 283 283 283 284 284 284 284 284 284 284 284 284 285 285 285 285 286 286 287 287 287 287 287 287 287 287 287 286 286 286 286 285 285 285 285 285 284 284 284 284 284 284 283 283 283 282 281 281 280 280 279 278 277 276 275 274 274
292 291 291 291 290 290 289 289 288 287 286 285 285 285 285 286 286 286 286 286 286 286 286 287 287 287 286 286 285 284 284 284 284 284 285 285 285 285 285 285 285 286 286 287 287 288 288 288 289 289 289 288 288 288 288 287 287 287 286 286 286 286 286 286 286 286 285 285 285 285 284 284 284 283 282 282 281 281 280 279 278 277 276 275 274
292 292 292 292 291 291 290 289 288 287 287 286 286 286 287 287 287 287 287 287 287 288 288 288 288 288 288 287 286 285 285 284 284 285 285 285 286 286 287 287 288 288 289 289 289 289 289 289 289 289 290 290 290 290 289 289 288 288 288 287 287 287 287 287 287 287 287 287 287 286 286 285 285 284 283 282 281 280 279 278 277 277 276 275 274
293 293 293 293 292 291 290 290 289 288 288 287 287 288 288 288 288 289 289 288 288 289 289 289 288 288 287 287 287 286 286 286 286 286 286 286 287 288 289 289 290 290 290 291 291 291 291 291 291 291 292 292 292 292 291 291 291 290 290 289 289 289 288 288 288 288 288 288 287 287 287 286 285 284 283 282 281 280 280 279 278 277 276 275 274
295 295 294 294 293 292 292 291 290 290 289 289 289 289 290 290 290 290 289 289 289 289 289 289 288 288 288 288 287 287 287 287 287 287 288 288 288 289 289 290 290 291 291 292 292 292 292 293 293 293 293 293 293 292 292 292 292 292 292 291 291 291 290 290 290 290 290 289 289 289 288 288 287 286 285 284 283 283 282 281 281 280 279 277 276
296 296 295 295 294 294 293 292 292 291 291 291 291 291 291 292 291 291 290 290 290 290 290 289 289 289 288 288 288 288 288 289 289 289 289 289 290 290 291 291 292 292 293 293 294 294 294 294 294 294 294 293 293 293 293 293 292 292 292 292 292 292 292 292 291 291 291 291 290 290 289 289 288 287 287 286 286 285 284 283 283 282 281 280 279
298 298 297 296 296 295 294 294 293 293 293 293 293 293 293 293 292 291 291 291 291 291 290 290 290 289 289 289 289 289 290 290 291 291 291 291 292 292 293 293 294 295 296 296 297 297 296 296 296 296 295 295 295 294 294 293 293 292 292 292 292 292 292 292 292 291 291 291 290 289 289 288 288 287 286 286 285 285 284 283 282 282 281 280 279
300 300 299 298 297 296 295 295 294 294 294 294 294 294 294 294 293 292 291 292 292 291 291 290 290 290 290 290 291 291 291 292 292 293 293 294 294 295 296 296 297 298 298 299 298 298 298 298 298 298 298 297 297 296 295 294 294 293 293 293 293 293 293 292 292 292 291 291 290 289 289 288 287 287 286 286 285 284 284 283 282 282 281 280 279
302 301 300 299 298 298 297 297 297 296 296 296 296 296 295 294 293 292 292 292 292 291 291 291 291 291 292 292 292 292 293 293 294 295 295 296 297 297 298 299 299 300 300 299 299 299 299 300 300 300 299 299 298 297 296 295 295 295 295 294 294 294 294 293 293 293 293 292 291 290 289 289 288 287 287 287 286 285 285 284 283 282 282 281 280
304 303 302 302 301 301 300 300 299 299 298 298 298 297 296 295 294 293 293 293 293 292 292 293 293 293 293 293 294 294 295 295 296 297 297 298 299 299 299 300 300 300 300 300 300 301 301 301 301 301 301 301 300 298 298 298 298 297 297 297 297 297 296 296 296 295 295 294 293 292 291 290 289 288 288 287 287 286 286 285 284 283 283 282 281
306 305 305 304 303 302 302 301 300 300 299 299 298 297 296 295 294 294 294 294 294 294 294 295 295 295 295 295 296 296 296 297 298 298 299 299 300 300 300 301 301 301 302 302 302 302 302 302 303 303 303 303 302 301 300 300 301 301 301 301 300 300 299 299 298 298 297 296 295 294 293 292 291 290 289 288 287 287 286 286 285 284 284 283 282
308 307 306 305 304 303 302 302 301 300 300 299 298 297 297 296 296 296 296 296 296 296 296 296 296 297 297 297 297 298 298 299 299 300 300 300 300 301 301 302 302 303 303 304 304 304 304 305 305 306 306 305 304 303 303 304 304 304 304 303 303 302 302 301 300 299 298 297 296 295 294 293 292 291 290 289 288 287 286 286 285 285 284 283 282
308 307 306 305 304 304 304 303 302 302 301 300 299 299 298 298 297 297 297 298 298 298 298 298 298 298 299 299 299 299 299 300 301 301 301 301 301 301 302 303 304 304 305 305 306 306 306 307 307 308 308 307 306 306 307 307 307 307 306 305 305 304 304 303 302 301 300 299 298 297 296 295 294 293 291 290 288 287 286 285 284 284 284 283 283
309 308 307 306 306 305 305 304 304 303 303 302 301 300 300 299 299 299 299 300 300 300 300 300 300 300 300 300 300 300 301 301 302 302 302 301 302 302 303 304 305 306 307 307 308 308 309 309 310 310 310 309 308 309 309 309 309 309 308 307 306 306 305 304 303 302 301 300 299 298 297 296 295 294 292 291 289 288 287 286 286 285 285 285 284
Height
10223 10222 10221 10220 10219 10217 10215 10214 10212 10211 10210 10209 10209 10208 10207 10207 10208 10209 10210 10211 10210 10210 10211 10210 10209 10208 10208 10207 10206 10205 10203 10202 10199 10198 10198 10199 10198 10197 10197 10196 10197 10198 10196 10196 10196 10195 10195 10194 10194 10193 10190 10190 10190 10189 10188 10187 10186 10186 10185 10185 10185 10184 10183 10182 10187 10193 10194 10194 10192 10186 10184 10184 10184 10184 10184 10182 10181 10180 10178 10177 10176 10175 10175 10176 10176
10205 10205 10205 10204 10203 10201 10200 10199 10197 10196 10195 10194 10192 10191 10189 10190 10190 10192 10193 10193 10192 10193 10194 10193 10192 10192 10192 10192 10191 10189 10188 10186 10184 10183 10183 10184 10183 10182 10181 10181 10181 10182 10181 10181 10180 10178 10178 10178 10178 10175 10172 10173 10173 10172 10171 10169 10168 10168 10167 10166 10165 10165 10163 10162 10166 10171 10173 10174 10173 10170 10168 10168 10166 10164 10163 10161 10159 10158 10157 10155 10154 10154 10154 10154 10154
10188 10188 10188 10187 10186 10185 10184 10184 10182 10181 10180 10178 10177 10175 10174 10173 10173 10174 10174 10173 10173 10174 10174 10174 10175 10175 10176 10176 10174 10173 10172 10171 10169 10169 10169 10168 10167 10167 10166 10165 10166 10166 10165 10165 10163 10161 10161 10162 10161 10158 10155 10155 10156 10155 10153 10152 10150 10149 10148 10146 10146 10145 10144 10142 10144 10149 10152 10153 10153 10151 10149 10148 10147 10144 10141 10139 10137 10135 10134 10133 10132 10132 10131 10131 10131
10171 10170 10170 10169 10169 10168 10167 10167 10166 10166 10165 10163 10161 10159 10157 10157 10156 10157 10156 10155 10155 10154 10154 10155 10155 10156 10157 10157 10157 10156 10156 10155 10154 10154 10154 10153 10152 10151 10150 10149 10149 10149 10148 10147 10146 10144 10144 10145 10143 10140 10137 10138 10138 10136 10134 10133 10131 10129 10128 10127 10126 10125 10124 10122 10123 10126 10129 10130 10131 10129 10126 10125 10125 10123 10119 10117 10115 10112 10111 10110 10109 10108 10107 10106 10106
10154 10153 10152 10151 10151 10151 10150 10149 10149 10149 10148 10147 10144 10142 10141 10140 10139 10139 10139 10138 10137 10136 10136 10135 10135 10136 10138 10138 10138 10138 10138 10138 10138 10138 10137 10136 10136 10135 10134 10133 10133 10132 10131 10130 10128 10127 10127 10127 10126 10122 10120 10121 10120 10117 10115 10113 10111 10109 10108 10106 10105 10103 10102 10101 10101 10101 10103 10107 10107 10106 10104 10102 10100 10099 10096 10094 10093 10091 10090 10089 10086 10083 10082 10082 10083
10137 10136 10135 10134 10134 10134 10133 10133 10132 10131 10130 10130 10128 10127 10125 10124 10123 10122 10121 10121 10120 10119 10118 10118 10118 10118 10119 10119 10120 10120 10120 10119 10120 10120 10119 10119 10118 10118 10117 10115 10114 10113 10112 10111 10110 10109 10109 10109 10107 10104 10103 10102 10100 10097 10095 10093 10091 10089 10088 10086 10083 10081 10080 10079 10078 10077 10079 10083 10084 10084 10083 10080 10077 10075 10073 10072 10071 10071 10070 10066 10062 10060 10059 10061 10062
10120 10119 10118 10118 10118 10118 10117 10116 10115 10114 10114 10113 10113 10112 10110 10109 10107 10106 10104 10104 10103 10102 10101 10101 10101 10101 10101 10102 10102 10102 10102 10102 10102 10101 10101 10100 10100 10099 10098 10096 10095 10094 10094 10093 10092 10091 10091 10089 10088 10086 10084 10082 10080 10077 10074 10073 10071 10070 10068 10065 10062 10060 10059 10058 10057 10056 10057 10059 10061 10062 10061 10058 10055 10053 10051 10050 10050 10051 10047 10042 10041 10041 10039 10039 10039
10105 10103 10102 10101 10101 10101 10101 10100 10099 10098 10098 10097 10096 10095 10094 10093 10091 10090 10089 10088 10086 10085 10084 10083 10083 10083 10083 10083 10083 10083 10083 10083 10083 10083 10082 10082 10081 10080 10078 10077 10076 10076 10075 10074 10074 10073 10072 10071 10069 10067 10065 10063 10060 10057 10055 10053 10052 10050 10048 10045 10042 10041 10040 10038 10037 10036 10037 10037 10038 10039 10038 10036 10034 10032 10030 10029 10029 10027 10023 10021 10023 10022 10017 10016 10020
10089 10088 10087 10086 10085 10085 10085 10084 10084 10083 10082 10081 10080 10078 10077 10076 10075 10074 10072 10071 10069 10068 10066 10065 10064 10064 10064 10064 10064 10064 10065 10064 10064 10063 10063 10062 10061 10060 10059 10058 10058 10057 10056 10056 10055 10054 10053 10051 10050 10048 10046 10044 10041 10038 10036 10034 10032 10030 10029 10026 10024 10022 10021 10019 10018 10016 10015 10015 10016 10016 10015 10015 10014 10011 10009 10008 10007 10004 10002 10002 10004 10001 9997 9998 10001
10071 10071 10071 10070 10070 10069 10068 10068 10068 10067 10066 10065 10063 10062 10061 10059 10058 10056 10054 10052 10051 10049 10048 10047 10047 10046 10046 10046 10046 10046 10045 10045 10044 10044 10043 10043 10042 10041 10040 10040 10039 10038 10038 10037 10037 10035 10034 10032 10031 10028 10026 10024 10021 10019 10016 10014 10013 10011 10009 10007 10005 10003 10001 10000 9998 9997 9995 9994 9994 9993 9993 9995 9994 9990 9988 9987 9984 9982 9982 9982 9982 9981 9980 9980 9981
10052 10052 10052 10053 10052 10052 10051 10050 10050 10050 10049 10048 10047 10046 10044 10043 10041 10039 10036 10035 10033 10031 10030 10029 10028 10028 10027 10027 10027 10026 10026 10025 10025 10025 10024 10024 10023 10023 10022 10021 10020 10020 10019 10018 10018 10016 10014 10013 10011 10009 10007 10004 10002 10000 9997 9996 9994 9992 9990 9989 9987 9984 9982 9980 9979 9977 9975 9974 9974 9973 9974 9975 9972 9969 9967 9965 9962 9961 9961 9961 9961 9962 9961 9961 9962
10035 10035 10035 10035 10034 10033 10033 10032 10032 10032 10031 10030 10029 10028 10026 10025 10023 10021 10019 10017 10015 10013 10012 10010 10009 10008 10008 10007 10007 10006 10006 10006 10006 10006 10005 10005 10004 10003 10003 10003 10002 10001 10001 9999 9998 9997 9995 9993 9991 9989 9987 9985 9982 9980 9978 9977 9975 9973 9971 9969 9967 9965 9962 9959 9958 9957 9956 9955 9955 9955 9955 9953 9951 9949 9946 9943 9941 9940 9940 9941 9941 9941 9942 9942 9943
10019 10019 10018 10018 10017 10016 10015 10015 10014 10013 10012 10011 10010 10008 10007 10005 10003 10001 9999 9997 9996 9994 9992 9991 9990 9989 9988 9988 9987 9987 9987 9987 9986 9986 9985 9985 9984 9984 9984 9984 9984 9983 9982 9980 9979 9977 9976 9974 9972 9970 9967 9965 9963 9961 9959 9958 9955 9953 9951 9949 9948 9946 9942 9940 9939 9937 9937 9936 9936 9937 9935 9932 9930 9929 9925 9922 9921 9922 9921 9921 9921 9921 9923 9924 9924
10005 10005 10004 10003 10002 10001 9999 9998 9997 9996 9994 9993 9991 9989 9987 9985 9982 9981 9979 9977 9976 9974 9973 9972 9971 9970 9970 9969 9969 9968 9968 9968 9967 9966 9966 9964 9965 9966 9967 9966 9964 9963 9962 9960 9959 9957 9956 9954 9951 9949 9947 9945 9943 9941 9939 9938 9936 9934 9932 9931 9930 9928 9925 9922 9920 9918 9918 9918 9918 9917 9915 9912 9910 9908 9905 9903 9903 9904 9903 9903 9903 9904 9905 9907 9906
9991 9990 9990 9989 9988 9986 9985 9983 9982 9980 9978 9976 9974 9971 9969 9966 9964 9962 9960 9958 9956 9955 9954 9953 9952 9952 9951 9951 9950 9950 9949 9949 9948 9947 9946 9945 9946 9948 9948 9946 9944 9943 9941 9939 9938 9936 9935 9933 9931 9929 9927 9926 9924 9922 9921 9919 9917 9916 9914 9913 9912 9910 9907 9905 9901 9900 9901 9901 9900 9898 9894 9893 9891 9888 9887 9886 9886 9886 9884 9885 9887 9887 9887 9888 9888
9976 9974 9973 9972 9972 9971 9969 9968 9966 9964 9962 9960 9957 9955 9952 9949 9947 9944 9942 9940 9939 9938 9937 9936 9935 9934 9934 9933 9932 9932 9932 9931 9930 9929 9928 9928 9929 9929 9928 9927 9926 9924 9922 9920 9918 9917 9916 9915 9913 9912 9910 9907 9905 9904 9902 9900 9899 9897 9896 9894 9893 9891 9890 9887 9883 9882 9883 9883 9883 9879 9875 9874 9873 9872 9870 9869 9869 9868 9867 9869 9871 9868 9868 9871 9871
9962 9960 9958 9956 9955 9954 9952 9951 9949 9947 9945 9943 9940 9938 9935 9933 9930 9928 9926 9924 9923 9922 9921 9920 9920 9918 9918 9917 9916 9915 9915 9914 9913 9912 9911 9911 9913 9911 9909 9909 9908 9907 9905 9903 9901 9899 9898 9897 9896 9894 9892 9889 9886 9883 9882 9881 9881 9879 9877 9876 9875 9874 9872 9868 9865 9865 9865 9865 9865 9863 9860 9858 9856 9855 9854 9852 9852 9851 9849 9853 9854 9848 9850 9855 9854
9948 9946 9944 9942 9940 9938 9936 9934 9932 9929 9927 9925 9923 9921 9918 9916 9914 9912 9911 9910 9909 9908 9907 9906 9905 9904 9903 9902 9901 9900 9899 9898 9897 9896 9895 9895 9896 9894 9892 9891 9890 9889 9888 9887 9885 9883 9881 9879 9877 9875 9872 9870 9867 9865 9864 9863 9863 9862 9860 9859 9858 9857 9854 9850 9848 9849 9848 9848 9848 9847 9846 9844 9841 9840 9839 9836 9835 9833 9833 9837 9835 9830 9834 9838 9835
9934 9932 9930 9928 9926 9924 9921 9919 9916 9913 9910 9908 9906 9903 9901 9899 9898 9897 9896 9895 9894 9894 9893 9892 9891 9890 9889 9888 9886 9885 9885 9883 9882 9881 9880 9879 9879 9878 9876 9874 9873 9872 9871 9870 9868 9866 9864 9862 9859 9857 9854 9852 9850 9848 9847 9846 9846 9846 9844 9842 9842 9841 9836 9833 9833 9833 9832 9832 9833 9831 9831 9829 9826 9825 9824 9820 9817 9816 9816 9819 9817 9814 9817 9819 9817
9920 9918 9916 9913 9911 9909 9906 9904 9902 9899 9896 9893 9890 9888 9886 9883 9882 9882 9881 9881 9880 9879 9878 9877 9876 9875 9874 9873 9872 9871 9870 9869 9867 9866 9865 9863 9863 9862 9861 9859 9857 9856 9855 9853 9852 9850 9848 9845 9843 9841 9839 9836 9834 9832 9831 9830 9829 9829 9828 9827 9826 9824 9820 9819 9819 9818 9816 9817 9816 9815 9814 9812 9809 9808 9807 9805 9802 9799 9798 9800 9801 9800 9800 9801 9801
9906 9903 9901 9899 9896 9894 9892 9890 9887 9884 9881 9878 9876 9874 9872 9869 9868 9867 9867 9866 9865 9864 9863 9862 9861 9860 9859 9858 9857 9856 9854 9853 9852 9850 9849 9848 9847 9847 9845 9843 9841 9841 9840 9838 9836 9834 9832 9829 9827 9825 9823 9821 9820 9818 9816 9814 9812 9812 9812 9811 9809 9807 9806 9806 9805 9802 9801 9801 9800 9798 9798 9795 9793 9791 9790 9788 9787 9784 9782 9783 9785 9785 9786 9785 9785
9890 9888 9886 9883 9881 9879 9877 9875 9873 9870 9867 9864 9862 9860 9858 9856 9855 9854 9853 9852 9852 9851 9849 9848 9847 9846 9845 9844 9843 9841 9840 9838 9836 9835 9834 9833 9831 9831 9830 9829 9827 9826 9826 9824 9821 9819 9817 9814 9812 9810 9808 9807 9806 9804 9802 9800 9797 9796 9795 9794 9794 9793 9792 9791 9788 9786 9785 9784 9783 9782 9781 9779 9777 9776 9773 9772 9770 9768 9767 9768 9768 9769 9770 9770 9768
9876 9874 9872 9870 9867 9865 9863 9860 9858 9855 9853 9851 9849 9848 9846 9844 9842 9841 9840 9839 9838 9837 9836 9835 9833 9832 9831 9830 9829 9828 9826 9823 9822 9820 9820 9819 9817 9816 9816 9815 9814 9813 9812 9809 9807 9804 9802 9800 9798 9796 9794 9793 9791 9789 9786 9784 9782 9781 9780 9778 9779 9780 9778 9776 9774 9772 9770 9768 9766 9766 9764 9762 9760 9758 9756 9754 9753 9751 9751 9751 9750 9750 9751 9753 9752
9865 9862 9860 9857 9855 9852 9850 9847 9844 9841 9839 9837 9836 9835 9833 9832 9831 9829 9828 9827 9826 9825 9824 9822 9821 9820 9819 9817 9816 9815 9812 9810 9808 9807 9805 9804 9803 9802 9802 9801 9801 9799 9797 9795 9792 9790 9788 9786 9784 9782 9780 9778 9775 9772 9770 9768 9767 9767 9766 9764 9764 9763 9762 9760 9759 9758 9757 9755 9753 9751 9749 9746 9744 9742 9739 9736 9734 9732 9732 9732 9731 9731 9732 9735 9736
9855 9852 9849 9846 9843 9840 9838 9835 9832 9829 9826 9824 9823 9821 9820 9819 9818 9817 9815 9814 9813 9812 9811 9810 9808 9807 9806 9804 9803 9802 9800 9797 9795 9794 9792 9791 9790 9790 9789 9788 9787 9785 9783 9780 9778 9776 9774 9773 9770 9768 9765 9762 9759 9757 9755 9753 9752 9752 9751 9749 9748 9746 9746 9745 9744 9743 9742 9741 9739 9738 9736 9733 9731 9729 9726 9723 9718 9715 9712 9711 9711 9711 9712 9714 9717
9843 9841 9838 9835 9832 9829 9826 9823 9821 9818 9815 9813 9811 9809 9807 9806 9805 9804 9803 9801 9800 9799 9799 9797 9796 9794 9793 9791 9790 9789 9787 9785 9783 9782 9780 9778 9777 9777 9776 9774 9772 9771 9769 9767 9765 9763 9761 9758 9755 9752 9749 9748 9746 9744 9742 9739 9737 9737 9736 9735 9733 9732 9730 9730 9729 9728 9727 9725 9723 9723 9721 9718 9717 9715 9713 9711 9708 9704 9699 9695 9693 9691 9690 9691 9695
9831 9828 9826 9823 9820 9817 9814 9812 9809 9807 9804 9802 9800 9799 9797 9795 9794 9793 9791 9790 9789 9788 9787 9786 9785 9783 9781 9779 9776 9774 9773 9772 9771 9770 9769 9767 9765 9764 9762 9761 9759 9757 9756 9754 9753 9750 9747 9744 9742 9740 9738 9736 9734 9731 9728 9725 9722 9721 9720 9720 9719 9718 9716 9715 9714 9712 9711 9709 9708 9707 9705 9703 9702 9700 9698 9697 9695 9692 9687 9684 9682 9679 9675 9672 9674
9819 9816 9813 9811 9808 9805 9802 9799 9797 9795 9793 9791 9789 9788 9786 9785 9784 9782 9781 9779 9778 9777 9776 9775 9774 9771 9769 9767 9764 9761 9759 9759 9759 9758 9757 9756 9754 9752 9750 9748 9746 9745 9743 9741 9738 9736 9734 9733 9732 9730 9728 9725 9721 9718 9715 9712 9709 9707 9705 9703 9703 9703 9701 9700 9698 9697 9695 9693 9692 9691 9689 9687 9686 9684 9682 9681 9680 9677 9674 9672 9671 9668 9665 9661 9661
9808 9805 9802 9799 9797 9794 9791 9788 9786 9784 9782 9780 9778 9777 9775 9774 9773 9771 9770 9768 9767 9766 9765 9764 9763 9761 9758 9755 9753 9750 9748 9746 9746 9746 9745 9744 9743 9742 9740 9737 9735 9732 9729 9726 9724 9724 9723 9722 9720 9718 9715 9713 9710 9707 9703 9701 9698 9695 9691 9689 9688 9687 9686 9685 9683 9682 9679 9678 9676 9675 9673 9672 9670 9668 9667 9666 9664 9661 9658 9657 9656 9654 9652 9650 9650
9798 9795 9791 9789 9786 9783 9781 9778 9775 9773 9771 9770 9768 9766 9765 9763 9762 9761 9759 9757 9756 9755 9754 9753 9752 9750 9747 9744 9741 9739 9737 9734 9733 9733 9733 9733 9733 9731 9730 9727 9724 9720 9716 9714 9713 9714 9712 9709 9707 9704 9702 9700 9698 9695 9692 9689 9686 9683 9679 9677 9674 9672 9670 9669 9668 9667 9665 9663 9662 9660 9658 9656 9654 9653 9651 9650 9648 9645 9643 9641 9641 9639 9638 9637 9636
9786 9784 9781 9778 9775 9773 9770 9768 9765 9763 9761 9759 9758 9757 9755 9753 9751 9750 9748 9747 9746 9744 9743 9741 9740 9739 9737 9734 9731 9729 9727 9724 9722 9721 9721 9721 9722 9721 9719 9716 9712 9709 9706 9704 9702 9701 9699 9696 9694 9692 9690 9688 9686 9683 9679 9676 9673 9670 9666 9663 9661 9659 9657 9654 9653 9651 9649 9648 9647 9646 9644 9642 9640 9638 9636 9634 9633 9631 9628 9626 9625 9624 9623 9622 9622
9775 9772 9770 9767 9764 9762 9759 9757 9755 9753 9751 9749 9748 9747 9746 9744 9742 9740 9738 9736 9736 9735 9734 9732 9730 9728 9727 9725 9722 9720 9717 9715 9712 9710 9709 9709 9710 9709 9706 9704 9702 9700 9697 9694 9692 9689 9687 9684 9682 9679 9677 9674 9671 9669 9666 9662 9660 9657 9653 9650 9648 9646 9643 9641 9639 9636 9634 9633 9632 9630 9629 9628 9626 9624 9622 9620 9619 9617 9614 9612 9611 9609 9609 9608 9607
9763 9762 9759 9757 9754 9751 9749 9746 9745 9743 9741 9740 9738 9736 9735 9734 9733 9731 9729 9727 9725 9725 9724 9723 9721 9719 9718 9716 9713 9710 9707 9705 9703 9701 9699 9699 9698 9696 9692 9691 9691 9688 9686 9684 9683 9680 9676 9673 9670 9667 9664 9660 9657 9654 9651 9648 9646 9644 9641 9639 9636 9634 9631 9629 9626 9624 9622 9620 9618 9616 9614 9613 9611 9610 9608 9606 9604 9603 9601 9599 9597 9596 9595 9595 9593
9753 9751 9749 9747 9745 9742 9739 9736 9735 9733 9731 9730 9728 9726 9724 9723 9722 9721 9720 9719 9717 9716 9714 9712 9710 9708 9707 9705 9703 9700 9698 9695 9693 9691 9690 9689 9687 9683 9680 9679 9678 9675 9673 9672 9670 9668 9665 9662 9659 9656 9653 9650 9646 9643 9639 9636 9633 9630 9627 9625 9623 9621 9619 9617 9615 9613 9611 9608 9606 9604 9601 9599 9597 9595 9594 9591 9590 9588 9586 9584 9583 9582 9581 9581 9579
9743 9741 9739 9737 9735 9733 9730 9728 9725 9724 9722 9720 9718 9716 9715 9713 9711 9710 9709 9709 9708 9707 9706 9704 9701 9697 9695 9693 9691 9689 9688 9685 9683 9682 9679 9677 9675 9671 9668 9667 9666 9663 9660 9658 9655 9653 9651 9648 9646 9644 9641 9638 9635 9632 9628 9625 9621 9618 9615 9612 9610 9607 9605 9603 9601 9600 9598 9596 9594 9592 9590 9588 9585 9583 9581 9579 9576 9574 9572 9570 9568 9567 9566 9565 9565
9734 9732 9729 9728 9726 9724 9722 9719 9717 9715 9713 9711 9709 9707 9705 9704 9702 9700 9699 9697 9697 9696 9696 9696 9694 9691 9688 9684 9681 9679 9678 9676 9674 9672 9670 9667 9664 9661 9658 9656 9654 9652 9649 9646 9643 9640 9637 9634 9632 9630 9628 9625 9623 9620 9617 9614 9610 9607 9603 9600 9597 9595 9592 9590 9588 9586 9584 9582 9581 9579 9577 9575 9573 9571 9569 9567 9564 9562 9560 9557 9555 9553 9551 9550 9549
9725 9723 9720 9718 9716 9715 9713 9711 9709 9707 9705 9703 9701 9699 9697 9695 9693 9691 9689 9688 9686 9685 9684 9684 9684 9683 9681 9678 9674 9670 9668 9667 9665 9664 9662 9659 9655 9652 9650 9647 9645 9642 9640 9637 9634 9630 9627 9624 9621 9618 9615 9613 9610 9608 9605 9602 9599 9596 9592 9588 9585 9582 9580 9577 9575 9573 9570 9568 9566 9565 9563 9561 9559 9557 9555 9553 9551 9549 9547 9545 9543 9541 9539 9537 9536
9716 9714 9711 9709 9708 9706 9704 9702 9700 9698 9696 9694 9692 9690 9688 9686 9684 9682 9681 9679 9677 9675 9674 9673 9673 9672 9671 9670 9667 9663 9660 9658 9656 9654 9652 9650 9647 9644 9641 9639 9636 9634 9631 9628 9625 9621 9617 9614 9610 9607 9604 9602 9599 9596 9593 9590 9587 9584 9581 9577 9574 9571 9568 9565 9562 9560 9558 9555 9553 9552 9550 9548 9546 9544 9541 9539 9536 9534 9533 9531 9530 9529 9527 9525 9524
9707 9705 9703 9701 9699 9697 9695 9693 9691 9690 9688 9686 9684 9682 9680 9678 9676 9675 9673 9671 9669 9667 9665 9664 9663 9661 9660 9659 9658 9656 9653 9651 9648 9645 9642 9640 9638 9635 9632 9629 9627 9624 9621 9618 9615 9612 9608 9604 9600 9597 9594 9591 9588 9585 9582 9579 9576 9573 9570 9567 9563 9560 9557 9554 9551 9548 9546 9543 9541 9539 9537 9535 9533 9531 9529 9526 9524 9521 9519 9517 9516 9514 9513 9512 9511
9700 9697 9695 9693 9691 9689 9687 9685 9683 9681 9679 9678 9676 9674 9672 9670 9669 9667 9665 9663 9661 9659 9657 9655 9654 9652 9651 9649 9648 9646 9645 9643 9640 9637 9634 9631 9628 9625 9622 9620 9617 9614 9611 9608 9605 9602 9599 9595 9591 9588 9584 9580 9577 9574 9571 9568 9565 9562 9559 9556 9553 9550 9547 9543 9540 9537 9534 9532 9530 9527 9525 9523 9521 9519 9516 9514 9512 9510 9507 9505 9503 9502 9501 9499 9498
9692 9690 9688 9685 9683 9681 9679 9677 9676 9674 9672 9670 9668 9667 9665 9663 9661 9660 9658 9655 9653 9651 9650 9648 9646 9644 9642 9640 9638 9637 9635 9633 9631 9629 9626 9623 9620 9617 9613 9610 9607 9605 9602 9599 9596 9593 9590 9586 9582 9578 9575 9571 9567 9563 9560 9557 9554 9551 9548 9545 9542 9540 9537 9533 9530 9527 9524 9521 9519 9517 9514 9512 9510 9507 9505 9502 9500 9498 9496 9494 9492 9490 9489 9488 9487
9685 9683 9680 9678 9676 9674 9672 9670 9668 9666 9664 9663 9661 9659 9657 9656 9654 9652 9650 9648 9646 9644 9642 9640 9638 9636 9634 9631 9629 9628 9626 9624 9622 9620 9617 9614 9611 9608 9605 9602 9599 9596 9594 9591 9587 9584 9581 9577 9573 9570 9566 9562 9558 9554 9551 9547 9544 9540 9537 9534 9531 9529 9526 9523 9520 9517 9514 9511 9508 9506 9503 9501 9498 9495 9493 9491 9489 9487 9485 9483 9481 9479 9477 9476 9475
9678 9676 9673 9671 9669 9667 9665 9663 9661 9659 9657 9656 9654 9652 9650 9648 9646 9644 9642 9640 9639 9637 9634 9632 9630 9628 9625 9623 9621 9619 9617 9615 9612 9610 9608 9605 9603 9600 9597 9594 9591 9588 9585 9582 9578 9575 9572 9568 9565 9561 9558 9554 9550 9546 9542 9539 9535 9532 9528 9525 9522 9519 9516 9513 9510 9507 9504 9501 9499 9496 9493 9490 9487 9485 9482 9480 9478 9476 9474 9472 9470 9467 9465 9464 9463
9671 9669 9667 9665 9663 9661 9658 9657 9655 9653 9651 9649 9647 9645 9643 9641 9639 9637 9635 9633 9631 9629 9627 9624 9622 9620 9618 9615 9613 9610 9608 9606 9604 9601 9599 9597 9594 9591 9588 9585 9582 9579 9576 9572 9569 9566 9563 9559 9556 9553 9549 9545 9541 9538 9534 9530 9527 9523 9520 9516 9513 9510 9507 9504 9501 9498 9495 9493 9490 9487 9484 9481 9478 9475 9473 9470 9468 9466 9463 9462 9460 9458 9456 9454 9452
9665 9663 9661 9659 9657 9654 9652 9650 9648 9646 9644 9643 9641 9639 9637 9634 9632 9630 9628 9626 9624 9622 9619 9617 9614 9612 9610 9607 9605 9603 9600 9598 9595 9593 9590 9588 9585 9582 9579 9576 9573 9570 9567 9564 9560 9557 9554 9551 9547 9544 9540 9537 9533 9529 9525 9521 9518 9515 9511 9508 9505 9502 9498 9495 9492 9489 9486 9484 9481 9478 9475 9472 9469 9466 9464 9461 9459 9457 9454 9452 9450 9448 9446 9445 9443
9660 9657 9655 9653 9651 9648 9646 9644 9642 9640 9638 9636 9634 9632 9630 9627 9625 9622 9620 9618 9616 9614 9612 9609 9607 9604 9602 9600 9597 9595 9592 9590 9587 9585 9582 9579 9576 9573 9570 9567 9565 9562 9559 9556 9552 9549 9546 9542 9539 9535 9532 9528 9524 9520 9517 9513 9509 9506 9503 9499 9496 9493 9490 9487 9484 9481 9478 9475 9472 9469 9466 9464 9461 9458 9455 9452 9450 9447 9445 9443 9440 9438 9437 9435 9433
9654 9652 9649 9647 9645 9643 9640 9638 9636 9634 9631 9629 9628 9625 9623 9621 9618 9615 9613 9611 9609 9607 9604 9602 9599 9597 9595 9592 9590 9587 9585 9582 9579 9576 9574 9571 9568 9565 9562 9560 9557 9554 9551 9548 9545 9541 9538 9534 9531 9528 9524 9520 9516 9512 9508 9505 9501 9497 9494 9491 9488 9484 9481 9478 9475 9472 9469 9466 9463 9460 9458 9455 9453 9450 9447 9444 9441 9438 9436 9434 9432 9429 9427 9426 9424
9648 9646 9644 9641 9639 9637 9635 9632 9630 9628 9625 9623 9621 9619 9616 9614 9611 9609 9606 9604 9602 9599 9597 9594 9592 9590 9587 9585 9582 9580 9577 9574 9571 9569 9566 9563 9560 9558 9555 9552 9550 9547 9544 9541 9537 9534 9530 9527 9523 9520 9516 9512 9508 9504 9501 9497 9493 9489 9486 9482 9479 9476 9473 9469 9466 9463 9461 9458 9455 9452 9449 9447 9444 9442 9439 9436 9434 9431 9428 9425 9423 9421 9419 9417 9416
9643 9640 9638 9636 9633 9631 9629 9626 9624 9622 9619 9617 9615 9613 9610 9607 9604 9602 9599 9597 9594 9592 9589 9587 9584 9582 9580 9577 9575 9572 9569 9567 9564 9561 9558 9556 9553 9550 9548 9545 9543 9540 9537 9533 9530 9526 9523 9519 9516 9512 9508 9505 9501 9497 9493 9489 9485 9482 9478 9475 9471 9468 9465 9462 9458 9455 9453 9450 9447 9444 9442 9439 9436 9434 9431 9429 9426 9424 9421 9418 9416 9414 9411 9410 9408
9637 9635 9632 9630 9627 9625 9623 9620 9618 9615 9613 9611 9608 9606 9604 9601 9598 9595 9592 9590 9587 9585 9582 9580 9577 9575 9572 9570 9567 9565 9562 9559 9557 9554 9551 9549 9546 9544 9541 9538 9536 9533 9529 9526 9523 9519 9516 9512 9508 9505 9501 9497 9493 9489 9486 9482 9478 9474 9471 9467 9464 9461 9457 9454 9451 9448 9445 9442 9440 9437 9434 9431 9429 9426 9424 9421 9419 9417 9414 9412 9409 9407 9405 9403 9401
9632 9629 9627 9624 9622 9619 9617 9614 9612 9609 9607 9604 9602 9599 9597 9594 9591 9588 9585 9583 9580 9578 9575 9573 9570 9568 9565 9563 9560 9558 9555 9552 9550 9547 9545 9542 9540 9537 9534 9532 9529 9526 9522 9519 9516 9512 9509 9505 9501 9498 9494 9490 9486 9482 9479 9475 9471 9467 9464 9460 9457 9454 9450 9447 9444 9441 9438 9435 9432 9430 9427 9424 9422 9419 9416 9414 9412 9410 9408 9405 9403 9401 9398 9396 9394